Regional Weather Roundup
Issued by NWS

Home | Current Version | Previous Version | Graphics & Text | Print | Product List | Glossary On
Versions: 1 2 3 4 5 6 7 8 9 10 11 12 13 14 15 16 17 18 19 20 21 22 23 24 25 26 27 28 29 30 31 32 33 34 35 36 37 38 39 40 41 42 43 44 45 46 47 48 49 50
000
ASUS45 KSLC 230810
RWRUT

UTAH REGIONAL WEATHER ROUNDUP
NATIONAL WEATHER SERVICE SALT LAKE CITY UT
100 AM MST THU FEB 23 2017

UTZ001>011-023>025-230900-

NORTHERN UTAH

CITY           SKY/WX    TMP DP  RH WIND       PRES   REMARKS
BRIGHAM CITY     N/A     33  24  68 W5        29.74F WCI  29
HILL AFB       CLOUDY    31  21  68 CALM      29.72F
LOGAN          CLOUDY    31  26  82 SE7       29.72F WCI  24
OGDEN          CLOUDY    30  26  85 SW5       29.72F WCI  25
SALT LAKE CITY CLOUDY    31  29  92 S5        29.74F WCI  26
TOOELE VALLEY  CLOUDY    30  28  93 SE5       29.74F WCI  25
WENDOVER       CLOUDY    32  14  47 NW16      29.76R WCI  21
HEBER CITY     LGT SNOW  27  25  93 CALM      29.69S
WEST JORDAN    CLOUDY    31  31 100 CALM      29.74F

$$

UTZ011>015-024>027-230900-

CENTRAL/NORTHEAST UTAH

CITY           SKY/WX    TMP DP  RH WIND       PRES   REMARKS
PROVO AIRPORT  CLOUDY    27  26  96 N5        29.75F WCI  22
MOAB/CANYONLAN LGT SNOW  35  33  92 W15       29.60R FOG     WCI  25
DELTA          CLOUDY    27  27 100 SW9       29.76S WCI  17
PRICE          CLOUDY    30  15  53 NW12      29.62F WCI  20
RICHFIELD      PTCLDY    27  27 100 CALM      29.79F
ROOSEVELT      SNOW      30  27  86 W14       29.65R VSB 1/2 WCI  20
VERNAL         CLOUDY    30  27  88 CALM      29.58F

$$

UTZ013>016-019>022-027-230900-

SOUTHERN UTAH

CITY           SKY/WX    TMP DP  RH WIND       PRES   REMARKS
BRYCE CANYON   FLURRIES  20  13  74 NW13      29.71F WCI   7
CEDAR CITY     CLOUDY    24  21  88 W6        29.75F WCI  17
MILFORD        CLOUDY    25  21  85 W9        29.77F WCI  15
ST GEORGE      CLOUDY    39  32  76 CALM      29.84S
HANKSVILLE     CLOUDY    37  10  32 W15G22    29.69R WCI  28
KANAB          CLOUDY    34  23  64 S5        29.82R WCI  30
BLANDING       PTCLDY    42  24  48 SW16G26   29.70F

$$

REGIONAL REPORTS     COLORADO/ARIZONA

CITY           SKY/WX    TMP DP  RH WIND       PRES   REMARKS
CRAIG, CO      LGT SNOW  30  28  92 CALM      29.56F VSB 3/4
GRAND JUNCTION CLOUDY    45  27  49 NW5       29.51S
RIFLE, CO      PTCLDY    50  19  29 SW14G24   29.49F
MONTROSE, CO   CLEAR     47  16  29 SW13G33   29.62S
CORTEZ, CO     CLOUDY    41  23  48 S10       29.68F
COLORADO CITY  CLOUDY    34  28  80 CALM      29.81S
PAGE, AZ       CLEAR     43  22  43 W12G25    29.70R
GRAND CANYON   CLOUDY    31  20  63 SW14G24   29.76F WCI  21
KINGMAN, AZ    PTCLDY    41  16  36 SW12      29.86S
FLAGSTAFF, AZ  PTCLDY    34  26  72 W18G26    29.77F WCI  23

$$

REGIONAL REPORTS    NEVADA/IDAHO/WYOMING

CITY           SKY/WX    TMP DP  RH WIND       PRES   REMARKS
LAS VEGAS, NV  CLOUDY    48  30  49 NE7       29.85R
ELY, NY        PTCLDY     6   1  80 S9        29.80S WCI  -8
ELKO, NV       LGT SNOW  26  22  84 SW14      29.80S FOG     WCI  14
POCATELLO, ID  LGT SNOW  28  27  96 W10       29.71F VSB 3/4 WCI  19
BURLEY, ID     MOCLDY    30  24  78 W8        29.70S WCI  22
FORT BRIDGER,  LGT SNOW  23  23 100 W18       29.67F WCI   8
EVANSTON, WY   LGT SNOW  19  15  84 SW8       29.64F FOG     WCI   9
ROCK SPRINGS,  CLOUDY    24  21  88 NW6       29.62S WCI  17

$$



USA.gov is the U.S. government's official web portal to all federal, state and local government web resources and services.